Weerstation Grootegast  Weerstation Grootegast


15 daagse weersverwachting Oulu (FI)

  • Overzicht
  • Per uur
  • 15 dagen
  • Extra
  • Vergelijk
  • Kaarten
  • Dagkaart
  • Meer »
  • Info
  • Statistieken
  • Directe link
    Temp 6h Neerslag Wind  
 10:26     14:04    Daglengte: 3:38 Vandaag
14:00
3.8 mm
5
warningclass
20:00
-1°
2.2 mm
5
warningclass
 10:28     14:04    Daglengte: 3:36 Morgen
02:00
-3°
 
5
08:00
-4°
 
4
14:00
-3°
 
4
20:00
-3°
3.8 mm
3
warningclass
 10:30     14:03    Daglengte: 3:33 Zaterdag 16 Dec
02:00
-4°
 
1
08:00
-4°
 
1
14:00
-6°
 
1
20:00
-6°
 
2
 10:31     14:03    Daglengte: 3:32 Zondag 17 Dec
02:00
-6°
 
2
Locatie info
Region: Pohjois-Pohjanmaa
Latitude: 65.0104°N
Longitude: 25.4736°E
15 masl
Postcode: 90100
Temp/Neerslag /Baro Onweer/DauwpuntSneeuw
    Temp Baro 1h Neerslag Dauwpunt Wind UV BewolkingSneeuw  
 10:26     14:04    Daglengte: 3:38 Vandaag
09:00
-1°
Voelt als: -4.4°
990.9 hPa
48%
-1.4°
3
Windvlaag: 6.2 m/s
65%13 cm
10:00
-0°
Voelt als: -4.0°
991.2 hPa 0.4 mm
82%
-0.9°
3
Windvlaag: 6.9 m/s
77%13 cm warningclass
11:00
-0°
Voelt als: -4.3°
991.5 hPa 0.6 mm
82%
-0.6°
4
Windvlaag: 7.3 m/s
72%13 cm warningclass
12:00
Voelt als: -4.2°
991.9 hPa 0.7 mm
82%
-0.1°
4
Windvlaag: 7.9 m/s
77%14 cm warningclass
13:00
Voelt als: -4.4°
992.3 hPa 1.0 mm
82%
0.0°
5
Windvlaag: 8.7 m/s
76%14 cm warningclass
14:00
Voelt als: -4.4°
992.7 hPa 1.1 mm
82%
-0.0°
5
Windvlaag: 8.9 m/s
77%14 cm warningclass
15:00
Voelt als: -4.5°
993.0 hPa 1.1 mm
82%
-0.1°
5
Windvlaag: 9.3 m/s
77%14 cm warningclass
16:00
Voelt als: -4.4°
993.5 hPa 1.0 mm
82%
-0.5°
5
Windvlaag: 10.3 m/s
77%14 cm warningclass
17:00
Voelt als: -4.4°
993.9 hPa
77%
-0.8°
6
Windvlaag: 10.7 m/s
77%14 cm
18:00
Voelt als: -4.7°
994.2 hPa
20%
-1.3°
6
Windvlaag: 10.4 m/s
77%14 cm
19:00
-0°
Voelt als: -5.2°
994.7 hPa
20%
-1.8°
5
Windvlaag: 10.7 m/s
68%14 cm
20:00
-1°
Voelt als: -5.9°
995.0 hPa   -2.7°
5
Windvlaag: 10.7 m/s
68%14 cm
21:00
-1°
Voelt als: -6.6°
995.4 hPa
14%
-3.3°
5
Windvlaag: 9.2 m/s
72%14 cm
22:00
-2°
Voelt als: -7.4°
995.7 hPa
14%
-4.0°
5
Windvlaag: 8.8 m/s
75%14 cm
23:00
-2°
Voelt als: -8.0°
995.7 hPa
14%
-4.2°
5
Windvlaag: 9.3 m/s
77%14 cm
 10:28     14:04    Daglengte: 3:36 Morgen
00:00
-3°
Voelt als: -8.3°
995.8 hPa
15%
-4.5°
5
Windvlaag: 9.5 m/s
77%14 cm
01:00
-3°
Voelt als: -8.5°
995.7 hPa
15%
-5.1°
5
Windvlaag: 8.9 m/s
77%14 cm
02:00
-3°
Voelt als: -8.7°
996.0 hPa
14%
-5.4°
5
Windvlaag: 7.9 m/s
77%14 cm
03:00
-3°
Voelt als: -8.8°
995.8 hPa
21%
-5.4°
5
Windvlaag: 7.8 m/s
77%14 cm
04:00
-3°
Voelt als: -8.9°
995.8 hPa
24%
-5.3°
5
Windvlaag: 7.9 m/s
77%14 cm
05:00
-3°
Voelt als: -9.1°
995.9 hPa
78%
-5.4°
5
Windvlaag: 7.6 m/s
77%14 cm
06:00
-4°
Voelt als: -9.3°
995.9 hPa
82%
-5.4°
4
Windvlaag: 7.1 m/s
77%14 cm
07:00
-4°
Voelt als: -9.0°
995.6 hPa
82%
-5.0°
4
Windvlaag: 7 m/s
77%14 cm
08:00
-4°
Voelt als: -8.8°
995.4 hPa
82%
-5.0°
4
Windvlaag: 7.1 m/s
77%14 cm
09:00
-4°
Voelt als: -8.5°
995.4 hPa
82%
-4.8°
4
Windvlaag: 5.5 m/s
77%14 cm
10:00
-3°
Voelt als: -7.8°
995.0 hPa
82%
-4.3°
4
Windvlaag: 3.4 m/s
77%14 cm
11:00
-3°
Voelt als: -7.5°
994.8 hPa
75%
-4.1°
4
Windvlaag: 3.4 m/s
77%14 cm
12:00
-3°
Voelt als: -7.7°
994.3 hPa
76%
-4.1°
4
Windvlaag: 4 m/s
77%14 cm
13:00
-3°
Voelt als: -7.8°
994.0 hPa
37%
-4.3°
4
Windvlaag: 3.9 m/s
77%14 cm
14:00
-3°
Voelt als: -7.8°
993.6 hPa
75%
-4.2°
4
Windvlaag: 3.7 m/s
77%14 cm
15:00
-3°
Voelt als: -7.6°
993.3 hPa
82%
-4.1°
4
Windvlaag: 3.8 m/s
77%14 cm
16:00
-3°
Voelt als: -7.5°
993.1 hPa 1.0 mm
82%
-4.4°
4
Windvlaag: 3.6 m/s
72%14 cm warningclass
17:00
-3°
Voelt als: -7.5°
992.8 hPa 1.0 mm
82%
-4.4°
3
Windvlaag: 2.9 m/s
72%14 cm warningclass
18:00
-3°
Voelt als: -7.5°
992.6 hPa 0.9 mm
82%
-4.5°
3
Windvlaag: 2.4 m/s
77%14 cm warningclass
19:00
-3°
Voelt als: -7.4°
992.4 hPa 0.9 mm
82%
-4.5°
3
Windvlaag: 2.1 m/s
77%14 cm warningclass
20:00
-3°
Voelt als: -7.2°
992.4 hPa
20%
-4.5°
3
Windvlaag: 1.3 m/s
77%14 cm
21:00
-3°
Voelt als: -6.9°
992.5 hPa
82%
-4.5°
2
Windvlaag: 1.1 m/s
77%14 cm
22:00
-3°
Voelt als: -6.6°
992.6 hPa
82%
-4.5°
2
Windvlaag: 0.7 m/s
77%14 cm
23:00
-3°
Voelt als: -6.5°
992.7 hPa
82%
-4.6°
2
Windvlaag: 1 m/s
77%14 cm
 10:30     14:03    Daglengte: 3:33 Zaterdag 16 Dec
00:00
-3°
Voelt als: -6.3°
993.0 hPa
82%
-4.5°
2
Windvlaag: 1.2 m/s
74%14 cm
01:00
-4°
Voelt als: -6.1°
993.2 hPa
82%
-4.5°
2
Windvlaag: 1.5 m/s
73%14 cm
02:00
-4°
Voelt als: -5.8°
993.7 hPa
81%
-4.5°
1
Windvlaag: 1.7 m/s
59%15 cm
03:00
-4°
Voelt als: -5.7°
993.9 hPa
80%
-4.5°
1
Windvlaag: 1.6 m/s
50%15 cm
04:00
-4°
Voelt als: -5.1°
994.4 hPa
75%
-4.3°
1
Windvlaag: 2 m/s
46%16 cm
05:00
-4°
Voelt als: -5.4°
995.4 hPa
42%
-4.0°
1
Windvlaag: 2.2 m/s
85%16 cm
06:00
-4°
Voelt als: -5.4°
995.8 hPa
72%
-4.0°
1
Windvlaag: 1.7 m/s
88%16 cm
07:00
-4°
Voelt als: -5.3°
996.0 hPa
27%
-4.0°
1
Windvlaag: 1.7 m/s
55%16 cm
08:00
-4°
Voelt als: -5.5°
996.4 hPa
28%
-4.0°
1
Windvlaag: 1.5 m/s
54%16 cm
09:00
-4°
Voelt als: -6.2°
997.1 hPa
36%
-4.4°
1
Windvlaag: 1.8 m/s
54%16 cm
10:00
-5°
Voelt als: -6.7°
997.7 hPa
87%
-4.9°
1
Windvlaag: 2.2 m/s
57%16 cm
11:00
-5°
Voelt als: -7.1°
998.3 hPa
31%
-4.7°
1
Windvlaag: 1.8 m/s
55%16 cm
12:00
-5°
Voelt als: -7.4°
998.6 hPa
22%
-5.3°
2
Windvlaag: 1.3 m/s
53%16 cm
13:00
-5°
Voelt als: -7.0°
998.8 hPa
22%
-5.4°
1
Windvlaag: 0.5 m/s
53%16 cm
14:00
-6°
Voelt als: -8.1°
999.1 hPa
21%
-5.7°
1
Windvlaag: 0.3 m/s
69%16 cm
15:00
-6°
Voelt als: -8.4°
999.5 hPa
22%
-5.7°
2
Windvlaag: 0.6 m/s
73%16 cm
16:00
-6°
Voelt als: -9.3°
999.7 hPa
22%
-6.4°
2
Windvlaag: 0.6 m/s
60%16 cm
17:00
-6°
Voelt als: -8.9°
1000.0 hPa
21%
-6.2°
2
Windvlaag: 1 m/s
38%16 cm
18:00
-6°
Voelt als: -8.7°
1000.4 hPa
21%
-6.0°
2
Windvlaag: 1.2 m/s
18%16 cm
19:00
-6°
Voelt als: -9.1°
1000.8 hPa
21%
-6.1°
2
Windvlaag: 1.6 m/s
38%16 cm
20:00
-6°
Voelt als: -10.0°
1001.2 hPa   -6.5°
2
Windvlaag: 1.2 m/s
28%16 cm
21:00
-7°
Voelt als: -10.5°
1001.5 hPa
21%
-6.9°
2
Windvlaag: 1.4 m/s
65%16 cm
22:00
-7°
Voelt als: -10.8°
1001.8 hPa
21%
-7.1°
2
Windvlaag: 2.3 m/s
88%16 cm
23:00
-6°
Voelt als: -10.2°
1002.5 hPa
22%
-6.6°
2
Windvlaag: 2.7 m/s
88%16 cm
 10:31     14:03    Daglengte: 3:32 Zondag 17 Dec
00:00
-6°
Voelt als: -10.1°
1002.9 hPa
21%
-6.5°
2
Windvlaag: 2.6 m/s
88%16 cm
01:00
-6°
Voelt als: -10.4°
1003.0 hPa
23%
-6.9°
2
Windvlaag: 2 m/s
88%16 cm
02:00
-6°
Voelt als: -10.2°
1003.1 hPa
25%
-7.2°
2
Windvlaag: 1.9 m/s
88%16 cm
03:00
-10°
Voelt als: -14.4°
1002.4 hPa
32%
-10.8°
2
Windvlaag: 3.5 m/s
80%16 cm
04:00
-10°
Voelt als: -14.2°
1002.8 hPa
65%
-10.7°
2
Windvlaag: 3.6 m/s
80%16 cm
05:00
-10°
Voelt als: -13.8°
1002.9 hPa
24%
-10.9°
2
Windvlaag: 3.6 m/s
80%16 cm
06:00
-10°
Voelt als: -13.9°
1003.0 hPa
31%
-10.9°
2
Windvlaag: 3.4 m/s
80%16 cm
07:00
-10°
Voelt als: -13.4°
1003.2 hPa
29%
-10.9°
2
Windvlaag: 3.3 m/s
80%16 cm
08:00
-9°
Voelt als: -13.3°
1003.5 hPa
75%
-10.6°
2
Windvlaag: 2.7 m/s
80%16 cm
Temp/Neerslag /Baro Onweer/DauwpuntSneeuw
    Temp Baro Neerslag Dauwpunt Wind BewolkingSneeuw  
 10:26     14:04    Daglengte: 3:38 Vandaag
11:00
-0°
Voelt als: -4.3°
991.5 hPa 1.0 mm -0.6°
4
72%13 cm warningclass
14:00
Voelt als: -4.4°
992.7 hPa 2.8 mm -0.0°
5
77%14 cm warningclass
17:00
Voelt als: -4.4°
993.9 hPa 2.2 mm -0.8°
6
77%14 cm warningclass
20:00
-1°
Voelt als: -5.9°
995.0 hPa   -2.7°
5
68%14 cm
23:00
-2°
Voelt als: -8.0°
995.7 hPa   -4.2°
5
77%14 cm
 10:28     14:04    Daglengte: 3:36 Morgen
02:00
-3°
Voelt als: -8.7°
996.0 hPa   -5.4°
5
77%14 cm
05:00
-3°
Voelt als: -9.1°
995.9 hPa   -5.4°
5
77%14 cm
08:00
-4°
Voelt als: -8.8°
995.4 hPa   -5.0°
4
77%14 cm
11:00
-3°
Voelt als: -7.5°
994.8 hPa   -4.1°
4
77%14 cm
14:00
-3°
Voelt als: -7.8°
993.6 hPa   -4.2°
4
77%14 cm
17:00
-3°
Voelt als: -7.5°
992.8 hPa 1.9 mm -4.4°
3
72%14 cm warningclass
20:00
-3°
Voelt als: -7.2°
992.4 hPa 1.9 mm -4.5°
3
77%14 cm warningclass
23:00
-3°
Voelt als: -6.5°
992.7 hPa   -4.6°
2
77%14 cm
 10:30     14:03    Daglengte: 3:33 Zaterdag 16 Dec
02:00
-4°
Voelt als: -5.8°
993.7 hPa   -4.5°
1
59%15 cm
05:00
-4°
Voelt als: -5.4°
995.4 hPa   -4.0°
1
85%16 cm
08:00
-4°
Voelt als: -5.5°
996.4 hPa   -4.0°
1
54%16 cm
11:00
-5°
Voelt als: -7.1°
998.3 hPa   -4.7°
1
55%16 cm
14:00
-6°
Voelt als: -8.1°
999.1 hPa   -5.7°
1
69%16 cm
17:00
-6°
Voelt als: -8.9°
1000.0 hPa   -6.2°
2
38%16 cm
20:00
-6°
Voelt als: -10.0°
1001.2 hPa   -6.5°
2
28%16 cm
23:00
-6°
Voelt als: -10.2°
1002.5 hPa   -6.6°
2
88%16 cm
 10:31     14:03    Daglengte: 3:32 Zondag 17 Dec
02:00
-6°
Voelt als: -10.2°
1003.1 hPa   -7.2°
2
88%16 cm
05:00
-10°
Voelt als: -13.8°
1002.9 hPa   -10.9°
2
80%16 cm
08:00
-9°
Voelt als: -13.3°
1003.5 hPa   -10.6°
2
80%16 cm
11:00
-4°
Voelt als: -8.0°
1005.0 hPa 0.1 mm -6.0°
3
1%
14:00
-3°
Voelt als: -7.3°
1006.4 hPa 0.2 mm -5.4°
3
1% warningclass
17:00
-3°
Voelt als: -5.6°
1007.6 hPa 0.1 mm -4.4°
2
1%
20:00
-3°
Voelt als: -5.9°
1008.7 hPa 0.3 mm -3.7°
2
1% warningclass
23:00
-3°
Voelt als: -6.3°
1009.6 hPa 0.1 mm -3.4°
3
1%
 10:32     14:03    Daglengte: 3:31 Maandag 18 Dec
02:00
-3°
Voelt als: -6.1°
1010.7 hPa 0.2 mm -3.4°
3
1% warningclass
05:00
-3°
Voelt als: -6.0°
1011.7 hPa   -3.7°
2
1%
08:00
-4°
Voelt als: -6.7°
1013.3 hPa 0.1 mm -4.9°
2
1%
11:00
-5°
Voelt als: -8.1°
1014.7 hPa   -5.7°
2
1%
14:00
-4°
Voelt als: -7.0°
1015.2 hPa   -5.4°
2
1%
17:00
-4°
Voelt als: -4.8°
1016.6 hPa   -5.2°
1
1%
20:00
-5°
Voelt als: -6.9°
1017.3 hPa   -5.8°
1
1%
23:00
-6°
Voelt als: -10.2°
1018.7 hPa   -7.1°
2
0%
 10:33     14:03    Daglengte: 3:30 Dinsdag 19 Dec
02:00
-8°
Voelt als: -11.6°
1020.1 hPa   -8.3°
2
0%
05:00
-8°
Voelt als: -11.7°
1021.8 hPa   -8.3°
2
0%
08:00
-8°
Voelt als: -12.4°
1023.6 hPa   -9.0°
2
0%
11:00
-10°
Voelt als: -14.7°
1026.3 hPa   -10.9°
2
0%
14:00
-11°
Voelt als: -14.8°
1028.5 hPa   -11.8°
2
0%
17:00
-11°
Voelt als: -14.7°
1030.0 hPa   -12.4°
2
0%
20:00
-11°
Voelt als: -14.0°
1031.3 hPa   -12.9°
1
0%
23:00
-11°
Voelt als: -13.7°
1032.1 hPa   -12.4°
1
0%
 10:34     14:03    Daglengte: 3:29 Woensdag 20 Dec
02:00
-10°
Voelt als: -14.3°
1032.1 hPa   -11.8°
2
0%
05:00
-10°
Voelt als: -14.9°
1031.3 hPa   -11.4°
3
0%
08:00
-9°
Voelt als: -14.6°
1030.1 hPa   -10.4°
3
1%
11:00
-8°
Voelt als: -13.4°
1029.7 hPa   -9.3°
4
1%
14:00
-7°
Voelt als: -12.0°
1028.1 hPa   -8.4°
4
1%
17:00
-6°
Voelt als: -11.6°
1026.5 hPa   -7.9°
4
1%
20:00
-5°
Voelt als: -11.0°
1025.8 hPa   -7.3°
4
1%
23:00
-5°
Voelt als: -10.7°
1025.4 hPa 0.7 mm -6.4°
4
1% warningclass
 10:34     14:04    Daglengte: 3:30 Donderdag 21 Dec
02:00
-5°
Voelt als: -10.5°
1024.7 hPa 2.7 mm -5.6°
5
1% warningclass
05:00
-4°
Voelt als: -10.2°
1023.8 hPa 1.6 mm -5.5°
5
1% warningclass
08:00
-4°
Voelt als: -10.0°
1023.1 hPa 4.1 mm -5.6°
5
1% warningclass
14:00
-3°
Voelt als: -8.6°
1022.5 hPa 3.7 mm -4.3°
5
1% warningclass
20:00
-2°
Voelt als: -6.7°
1022.0 hPa 0.3 mm -3.0°
4
1%
 10:34     14:04    Daglengte: 3:30 Vrijdag 22 Dec
02:00
-1°
Voelt als: -5.8°
1021.1 hPa 0.1 mm -2.2°
5
1%
08:00
-2°
Voelt als: -8.2°
1019.0 hPa 0.3 mm -3.8°
5
1%
14:00
-1°
Voelt als: -6.8°
1017.6 hPa 0.6 mm -3.0°
6
1% warningclass
20:00
-4°
Voelt als: -9.8°
1018.5 hPa 0.4 mm -5.5°
5
1% warningclass
 10:35     14:05    Daglengte: 3:30 Zaterdag 23 Dec
02:00
-5°
Voelt als: -10.9°
1018.9 hPa 1.4 mm -6.0°
5
1% warningclass
08:00
-3°
Voelt als: -8.5°
1019.6 hPa 2.7 mm -4.1°
5
1% warningclass
14:00
-2°
Voelt als: -6.5°
1021.5 hPa 1.5 mm -3.1°
3
1% warningclass
20:00
-5°
Voelt als: -7.0°
1023.5 hPa 0.1 mm -5.3°
1
1%
 10:35     14:06    Daglengte: 3:31 Zondag 24 Dec
02:00
-4°
Voelt als: -7.0°
1024.8 hPa   -4.8°
2
1%
08:00
-4°
Voelt als: -6.3°
1005.7 hPa 0.6 mm -4.6°
2
0%
14:00
-4°
Voelt als: -6.8°
1005.0 hPa 0.9 mm -4.8°
2
0%
20:00
-4°
Voelt als: -7.2°
1004.7 hPa 0.7 mm -4.9°
2
0%
 10:35     14:07    Daglengte: 3:32 Maandag 25 Dec
02:00
-4°
Voelt als: -7.4°
1004.9 hPa 0.2 mm -5.0°
2
0%
08:00
-4°
Voelt als: -6.5°
1004.5 hPa 0.3 mm -4.7°
2
0%
14:00
-4°
Voelt als: -6.7°
1004.6 hPa 0.5 mm -5.0°
2
0%
20:00
-5°
Voelt als: -7.5°
1005.5 hPa 0.3 mm -5.6°
2
0%
 10:34     14:08    Daglengte: 3:34 Dinsdag 26 Dec
02:00
-5°
Voelt als: -8.5°
1006.2 hPa 0.4 mm -5.9°
2
0%
08:00
-6°
Voelt als: -9.1°
1007.5 hPa 0.3 mm -6.3°
2
0%
14:00
-5°
Voelt als: -9.0°
1008.9 hPa 0.2 mm -5.8°
3
0%
20:00
-5°
Voelt als: -8.7°
1010.3 hPa 0.2 mm -5.6°
2
0%
 10:34     14:10    Daglengte: 3:36 Woensdag 27 Dec
02:00
-4°
Voelt als: -8.8°
1010.3 hPa 0.2 mm -5.2°
3
0%
08:00
-4°
Voelt als: -7.4°
1010.9 hPa 0.5 mm -4.6°
2
0%
14:00
-4°
Voelt als: -6.8°
1012.8 hPa 0.4 mm -4.3°
2
0%
20:00
-4°
Voelt als: -7.7°
1014.0 hPa 0.4 mm -4.9°
2
0%
 10:33     14:12    Daglengte: 3:39 Donderdag 28 Dec
02:00
-4°
Voelt als: -8.2°
1015.3 hPa 0.3 mm -5.2°
2
0%
08:00
-4°
Voelt als: -8.1°
1015.1 hPa 0.4 mm -4.9°
3
0%
14:00
-4°
Voelt als: -8.4°
1015.2 hPa 0.4 mm -5.2°
3
0%
20:00
-4°
Voelt als: -8.0°
1014.7 hPa 0.2 mm -4.6°
3
0%
 10:32     14:13    Daglengte: 3:41 Vrijdag 29 Dec
02:00
-4°
Voelt als: -7.7°
1014.8 hPa 0.4 mm -4.4°
3
0%
08:00
-4°
Voelt als: -7.8°
1014.5 hPa 1.0 mm -4.6°
3
0%
  CAPE Lifted Index Hail Supercell Tornado SRH 3km CL BTM PRES CL TOP PRES Swiss DWD icon SMHI TS
 10:26     14:04    Daglengte: 3:38 Vandaag
09:00 0 J/kg 4.4 K 0 % 0 % 0 % 0 m²/s² 0 0 5.27 71
10:00 1 J/kg 4.3 K 0 % 0 % 0 % 0 m²/s² 0 0 4.78 71
11:00 1 J/kg 4.6 K 0 % 0 % 0 % 0 m²/s² 0 0 5.17 71
12:00 0 J/kg 4.6 K 0 % 0 % 0 % 0 m²/s² 0 0 5.11 71
13:00 0 J/kg 5.0 K 0 % 0 % 0 % 0 m²/s² 0 0 5.54 71
14:00 0 J/kg 5.5 K 0 % 0 % 0 % 0 m²/s² 0 0 6.07 71
15:00 0 J/kg 6.4 K 0 % 0 % 0 % 0 m²/s² 0 0 6.97 71
16:00 0 J/kg 6.5 K 0 % 0 % 0 % 0 m²/s² 0 0 7.07 61
17:00 0 J/kg 6.8 K 0 % 0 % 0 % 0 m²/s² 0 0 7.4 3
18:00 0 J/kg 7.0 K 0 % 0 % 0 % 0 m²/s² 0 0 7.6 3
19:00 0 J/kg 9.7 K 0 % 0 % 0 % 0 m²/s² 0 0 13.33 3
20:00 0 J/kg 10.5 K 0 % 0 % 0 % 0 m²/s² 0 0 16.02 3
21:00 0 J/kg 11.4 K 0 % 0 % 0 % 0 m²/s² 0 0 17.1 3
22:00 0 J/kg 11.5 K 0 % 0 % 0 % 0 m²/s² 0 0 17.35 3
23:00 0 J/kg 11.9 K 0 % 0 % 0 % 0 m²/s² 0 0 17.39 3
 10:28     14:04    Daglengte: 3:36 Morgen
00:00 0 J/kg 11.7 K 0 % 0 % 0 % 0 m²/s² 0 0 17.37 3
01:00 0 J/kg 11.6 K 0 % 0 % 0 % 0 m²/s² 0 0 17.63 3
02:00 0 J/kg 11.7 K 0 % 0 % 0 % 0 m²/s² 0 0 17.91 3
03:00 0 J/kg 12.1 K 0 % 0 % 0 % 0 m²/s² 0 0 18.52 3
04:00 0 J/kg 12.5 K 0 % 0 % 0 % 0 m²/s² 0 0 18.68 3
05:00 0 J/kg 12.8 K 0 % 0 % 0 % 0 m²/s² 0 0 18.62 77
06:00 0 J/kg 12.2 K 0 % 0 % 0 % 0 m²/s² 0 0 17.54 77
07:00 0 J/kg 11.8 K 0 % 0 % 0 % 0 m²/s² 0 0 16.12 3
08:00 0 J/kg 11.1 K 0 % 0 % 0 % 0 m²/s² 0 0 13.74 3
09:00 0 J/kg 10.1 K 0 % 0 % 0 % 0 m²/s² 0 0 10.88 3
10:00 0 J/kg 9.6 K 0 % 0 % 0 % 0 m²/s² 0 0 10.17 3
11:00 0 J/kg 9.1 K 0 % 0 % 0 % 0 m²/s² 0 0 9.67 3
12:00 0 J/kg 8.6 K 0 % 0 % 0 % 0 m²/s² 0 0 9.14 3
13:00 0 J/kg 8.2 K 0 % 0 % 0 % 0 m²/s² 0 0 8.77 3
14:00 0 J/kg 7.4 K 0 % 0 % 0 % 0 m²/s² 0 0 8 3
15:00 0 J/kg 6.5 K 0 % 0 % 0 % 0 m²/s² 0 0 7.07 71
16:00 0 J/kg 6.2 K 0 % 0 % 0 % 0 m²/s² 0 0 6.77 71
17:00 0 J/kg 5.9 K 0 % 0 % 0 % 0 m²/s² 0 0 6.5 71
18:00 0 J/kg 5.5 K 0 % 0 % 0 % 0 m²/s² 0 0 6.19 71
19:00 0 J/kg 5.1 K 0 % 0 % 0 % 0 m²/s² 0 0 5.88 71
20:00 0 J/kg 4.8 K 0 % 0 % 0 % 0 m²/s² 0 0 5.4 71
21:00 0 J/kg 4.7 K 0 % 0 % 0 % 0 m²/s² 0 0 5.3 3
22:00 0 J/kg 4.7 K 0 % 0 % 0 % 0 m²/s² 0 0 5.33 71
23:00 0 J/kg 5.0 K 0 % 0 % 0 % 0 m²/s² 0 0 5.6 71
 10:30     14:03    Daglengte: 3:33 Zaterdag 16 Dec
00:00 0 J/kg 5.1 K 0 % 0 % 0 % 0 m²/s² 0 0 5.7 71
01:00 0 J/kg 5.1 K 0 % 0 % 0 % 0 m²/s² 0 0 5.7 71
02:00 0 J/kg 5.1 K 0 % 0 % 0 % 0 m²/s² 0 0 5.7 3
03:00 0 J/kg 5.0 K 0 % 0 % 0 % 0 m²/s² 0 0 5.57 3
04:00 1 J/kg 4.8 K 0 % 0 % 0 % 0 m²/s² 0 0 5.88 2
05:00 1 J/kg 4.6 K 0 % 0 % 0 % 0 m²/s² 0 0 7.21 3
06:00 1 J/kg 4.3 K 0 % 0 % 0 % 0 m²/s² 0 0 8.71 3
07:00 0 J/kg 4.4 K 0 % 0 % 0 % 0 m²/s² 0 0 9.02 2
08:00 0 J/kg 4.3 K 0 % 0 % 0 % 0 m²/s² 0 0 7.96 3
09:00 1 J/kg 4.0 K 0 % 0 % 0 % 0 m²/s² 0 0 7.48 2
10:00 1 J/kg 4.0 K 0 % 0 % 0 % 0 m²/s² 0 0 6.97 2
11:00 1 J/kg 3.9 K 0 % 0 % 0 % 0 m²/s² 0 0 7.86 3
12:00 0 J/kg 4.1 K 0 % 0 % 0 % 0 m²/s² 0 0 8.15 2
13:00 0 J/kg 4.2 K 0 % 0 % 0 % 0 m²/s² 0 0 7.86 2
14:00 0 J/kg 4.3 K 0 % 0 % 0 % 0 m²/s² 0 0 7.6 2
15:00 1 J/kg 4.2 K 0 % 0 % 0 % 0 m²/s² 0 0 7.17 3
16:00 3 J/kg 4.3 K 0 % 0 % 0 % 0 m²/s² 0 0 7.78 2
17:00 3 J/kg 4.4 K 0 % 0 % 0 % 0 m²/s² 0 0 7.97 1
18:00 1 J/kg 4.3 K 0 % 0 % 0 % 0 m²/s² 0 0 7.69 0
19:00 2 J/kg 4.5 K 0 % 0 % 0 % 0 m²/s² 0 0 7.95 2
20:00 1 J/kg 4.7 K 0 % 0 % 0 % 0 m²/s² 0 0 8.33 2
21:00 0 J/kg 4.9 K 0 % 0 % 0 % 0 m²/s² 0 0 8.53 48
22:00 3 J/kg 5.0 K 0 % 0 % 0 % 0 m²/s² 0 0 8.72 48
23:00 6 J/kg 5.2 K 0 % 0 % 0 % 0 m²/s² 0 0 9.04 48
 10:31     14:03    Daglengte: 3:32 Zondag 17 Dec
00:00 6 J/kg 5.2 K 0 % 0 % 0 % 0 m²/s² 0 0 8.92 48
01:00 1 J/kg 5.4 K 0 % 0 % 0 % 0 m²/s² 0 0 9.12 48
02:00 0 J/kg 5.5 K 0 % 0 % 0 % 0 m²/s² 0 0 8.95 48
03:00 0 J/kg 5.9 K 0 % 0 % 0 % 0 m²/s² 0 0 9.35 48
04:00 2 J/kg 6.1 K 0 % 0 % 0 % 0 m²/s² 0 0 9.46 48
05:00 1 J/kg 6.1 K 0 % 0 % 0 % 0 m²/s² 0 0 9.55 48
06:00 1 J/kg 6.5 K 0 % 0 % 0 % 0 m²/s² 0 0 9.86 48
07:00 0 J/kg 6.7 K 0 % 0 % 0 % 0 m²/s² 0 0 9.16 48
08:00 0 J/kg 6.9 K 0 % 0 % 0 % 0 m²/s² 0 0 8.43 48
Temp Baro Wind Neerslag
  EWN Forecast EWN WRFDA DWD ICON FMI HIRLAM MET Norway GFS
 10:26     14:04    Daglengte: 3:38 Vandaag
11:00 -0.2° 991.5 hPa 3.7 m/s 1.0 mm 0.0° 989.5 hPa 4.2 m/s 2.1 mm -0.5° 991.5 hPa 3.3 m/s -0.8 mm 0.6° 991.7 hPa 3.5 m/s 0.0 mm 0.7° 991.6 hPa 3.5 m/s
14:00 0.4° 992.7 hPa 5.1 m/s 2.8 mm 0.3° 990.8 hPa 6.1 m/s 8.0 mm 0.5° 992.1 hPa 5.3 m/s 1.5 mm 0.9° 993.0 hPa 4.4 m/s 0.0 mm 1.2° 992.7 hPa 5.1 m/s
17:00 0.7° 993.9 hPa 5.7 m/s 2.2 mm -0.4° 991.8 hPa 6.1 m/s 11.8 mm 0.6° 994.0 hPa 5.5 m/s 0.6 mm 1.3° 994.1 hPa 5.2 m/s 0.0 mm 0.6° 994.1 hPa 5.4 m/s
20:00 -0.7° 995.0 hPa 5.2 m/s 0.0 mm -3.0° 992.3 hPa 5.5 m/s 7.9 mm -1.0° 994.8 hPa 5.2 m/s 0.0 mm -0.1° 995.2 hPa 4.5 m/s 0.0 mm -2.0° 995.2 hPa 5.1 m/s
23:00 -2.3° 995.7 hPa 5.3 m/s 0.0 mm -5.1° 993.1 hPa 5.1 m/s 11.8 mm -2.8° 995.9 hPa 5.0 m/s 0.0 mm -1.7° 995.8 hPa 5.3 m/s 0.0 mm -3.6° 996.0 hPa 4.2 m/s
 10:28     14:04    Daglengte: 3:36 Morgen
02:00 -3.2° 996.0 hPa 4.7 m/s 0.0 mm -4.5° 992.5 hPa 4.7 m/s 11.8 mm -3.2° 996.3 hPa 4.5 m/s 0.0 mm -3.3° 995.9 hPa 5.1 m/s 0.0 mm -2.4° 996.3 hPa 4.3 m/s
05:00 -3.5° 995.9 hPa 4.7 m/s 0.0 mm -3.7° 991.3 hPa 4.6 m/s 11.8 mm -3.5° 996.4 hPa 4.7 m/s 0.0 mm -4.4° 995.8 hPa 4.4 m/s 0.0 mm -2.5° 996.0 hPa 4.1 m/s
08:00 -3.7° 995.4 hPa 3.9 m/s 0.0 mm -3.9° 990.2 hPa 5.2 m/s 11.8 mm -3.9° 996.0 hPa 1.6 m/s 0.1 mm -4.7° 995.1 hPa 4.1 m/s 0.0 mm -2.2° 995.7 hPa 2.8 m/s
11:00 -2.7° 994.8 hPa 4.0 m/s 0.0 mm -3.7° 989.3 hPa 5.9 m/s 12.0 mm -2.4° 995.5 hPa 3.7 m/s 0.0 mm -4.0° 994.3 hPa 3.5 m/s 0.0 mm -2.8° 995.7 hPa 3.7 m/s
14:00 -2.9° 993.6 hPa 3.9 m/s 0.0 mm -3.5° 988.0 hPa 5.1 m/s 12.4 mm -3.4° 994.1 hPa 3.8 m/s 0.0 mm -2.9° 993.2 hPa 3.3 m/s 0.0 mm -3.6° 994.9 hPa 3.9 m/s
17:00 -3.1° 992.8 hPa 3.2 m/s 1.9 mm -3.1° 986.8 hPa 4.3 m/s 12.4 mm -4.4° 993.2 hPa 3.1 m/s 0.4 mm -2.4° 992.3 hPa 3.0 m/s 0.0 mm -4.3° 994.9 hPa 3.3 m/s
20:00 -3.3° 992.4 hPa 2.7 m/s 1.9 mm -2.5° 986.5 hPa 2.8 m/s 8.3 mm -4.8° 992.9 hPa 2.1 m/s 0.4 mm -2.4° 991.4 hPa 3.2 m/s 0.0 mm -4.6° 994.9 hPa 2.5 m/s
23:00 -3.5° 992.7 hPa 2.0 m/s 0.0 mm -2.2° 987.9 hPa 1.4 m/s 12.6 mm -5.2° 993.2 hPa 1.0 m/s 0.2 mm -2.5° 990.8 hPa 3.2 m/s 0.0 mm -5.1° 995.7 hPa 2.2 m/s
 10:30     14:03    Daglengte: 3:33 Zaterdag 16 Dec
02:00 -3.6° 993.7 hPa 1.5 m/s 0.0 mm -1.4° 989.6 hPa 2.3 m/s 13.8 mm -5.8° 994.3 hPa 0.8 m/s 0.2 mm -2.5° 990.6 hPa 1.8 m/s 0.0 mm -4.5° 996.3 hPa 2.0 m/s
05:00 -3.8° 995.4 hPa 1.1 m/s 0.0 mm -1.3° 991.0 hPa 3.0 m/s 17.6 mm -6.5° 995.6 hPa 0.9 m/s 0.0 mm -2.8° 996.9 hPa 1.9 m/s
08:00 -4.0° 996.4 hPa 1.1 m/s 0.0 mm -0.9° 992.0 hPa 2.5 m/s 18.6 mm -6.8° 996.6 hPa 0.9 m/s 0.0 mm -1.7° 997.6 hPa 1.8 m/s
11:00 -4.7° 998.3 hPa 1.4 m/s 0.0 mm -2.8° 992.9 hPa 3.5 m/s 19.4 mm -7.6° 998.6 hPa 1.2 m/s 0.0 mm -0.9° 998.5 hPa 1.8 m/s
14:00 -5.7° 999.1 hPa 1.4 m/s 0.0 mm -5.2° 992.8 hPa 1.3 m/s 19.8 mm -8.0° 999.5 hPa 1.6 m/s 0.0 mm -1.0° 998.8 hPa 2.0 m/s
17:00 -6.1° 1000.0 hPa 1.6 m/s 0.0 mm -5.7° 992.7 hPa 2.3 m/s 20.0 mm -7.9° 1000.5 hPa 1.4 m/s 0.0 mm -3.2° 998.8 hPa 0.9 m/s
20:00 -6.4° 1001.2 hPa 2.0 m/s 0.0 mm -5.0° 993.0 hPa 2.9 m/s 13.4 mm -10.6° 1002.0 hPa 2.2 m/s 0.0 mm -1.6° 999.0 hPa 0.7 m/s
23:00 -6.2° 1002.5 hPa 2.3 m/s 0.0 mm -4.4° 993.6 hPa 3.0 m/s 20.2 mm -12.3° 1003.5 hPa 2.4 m/s 0.0 mm -2.2° 999.6 hPa 1.9 m/s
 10:31     14:03    Daglengte: 3:32 Zondag 17 Dec
02:00 -6.4° 1003.1 hPa 2.2 m/s 0.0 mm -5.4° 994.6 hPa 2.7 m/s 20.5 mm -11.8° 1004.0 hPa 2.3 m/s 0.0 mm -2.7° 1000.4 hPa 2.3 m/s
05:00 -9.9° 1002.9 hPa 1.9 m/s 0.0 mm -5.8° 995.7 hPa 2.1 m/s 20.7 mm -10.9° 1004.6 hPa 1.9 m/s 0.0 mm -3.4° 1001.3 hPa 2.2 m/s
08:00 -9.5° 1003.5 hPa 1.9 m/s 0.0 mm -6.2° 997.1 hPa 1.7 m/s 20.9 mm -10.3° 1005.1 hPa 1.9 m/s 0.0 mm -4.3° 1002.9 hPa 2.7 m/s
11:00 -4.2° 1005.0 hPa 2.6 m/s 0.1 mm -4.2° 1005.0 hPa 2.6 m/s 0.1 mm
14:00 -3.4° 1006.4 hPa 2.7 m/s 0.2 mm -3.4° 1006.4 hPa 2.7 m/s 0.2 mm
17:00 -2.9° 1007.6 hPa 1.8 m/s 0.1 mm -2.9° 1007.6 hPa 1.8 m/s 0.1 mm
20:00 -2.7° 1008.7 hPa 2.3 m/s 0.3 mm -2.7° 1008.7 hPa 2.3 m/s 0.3 mm
23:00 -2.5° 1009.6 hPa 2.8 m/s 0.1 mm -2.5° 1009.6 hPa 2.8 m/s 0.1 mm
 10:32     14:03    Daglengte: 3:31 Maandag 18 Dec
02:00 -2.5° 1010.7 hPa 2.6 m/s 0.2 mm -2.5° 1010.7 hPa 2.6 m/s 0.2 mm
05:00 -2.7° 1011.7 hPa 2.3 m/s 0.0 mm -2.7° 1011.7 hPa 2.3 m/s 0.1 mm
08:00 -3.6° 1013.3 hPa 2.0 m/s 0.1 mm -3.6° 1013.3 hPa 2.0 m/s 0.1 mm
11:00 -4.7° 1014.7 hPa 2.2 m/s 0.0 mm -4.7° 1014.7 hPa 2.2 m/s 0.0 mm
14:00 -4.5° 1015.2 hPa 1.6 m/s 0.0 mm -4.5° 1015.2 hPa 1.6 m/s 0.1 mm
17:00 -4.2° 1016.6 hPa 0.7 m/s 0.0 mm -4.2° 1016.6 hPa 0.7 m/s 0.1 mm
20:00 -5.1° 1017.3 hPa 1.2 m/s 0.0 mm -5.1° 1017.3 hPa 1.2 m/s 0.1 mm
23:00 -6.4° 1018.7 hPa 2.2 m/s 0.0 mm -6.4° 1018.7 hPa 2.2 m/s 0.0 mm
 10:33     14:03    Daglengte: 3:30 Dinsdag 19 Dec
02:00 -7.8° 1020.1 hPa 2.0 m/s 0.0 mm -7.8° 1020.1 hPa 2.0 m/s 0.0 mm
05:00 -7.8° 1021.8 hPa 2.1 m/s 0.0 mm -7.8° 1021.8 hPa 2.1 m/s 0.0 mm
08:00 -8.1° 1023.6 hPa 2.3 m/s 0.0 mm -8.1° 1023.6 hPa 2.3 m/s 0.0 mm
11:00 -9.9° 1026.3 hPa 2.5 m/s 0.0 mm -9.9° 1026.3 hPa 2.5 m/s 0.0 mm
14:00 -10.8° 1028.5 hPa 1.9 m/s 0.0 mm -10.8° 1028.5 hPa 1.9 m/s 0.0 mm
17:00 -11.1° 1030.0 hPa 1.7 m/s 0.0 mm -11.1° 1030.0 hPa 1.7 m/s 0.0 mm
20:00 -11.2° 1031.3 hPa 1.3 m/s 0.0 mm -11.2° 1031.3 hPa 1.3 m/s 0.0 mm
23:00 -10.7° 1032.1 hPa 1.4 m/s 0.0 mm -10.7° 1032.1 hPa 1.4 m/s 0.0 mm
 10:34     14:03    Daglengte: 3:29 Woensdag 20 Dec
02:00 -10.3° 1032.1 hPa 1.9 m/s 0.0 mm -10.3° 1032.1 hPa 1.9 m/s 0.0 mm
05:00 -10.0° 1031.3 hPa 2.5 m/s 0.0 mm -10.0° 1031.3 hPa 2.5 m/s 0.0 mm
08:00 -9.1° 1030.1 hPa 3.1 m/s 0.0 mm -9.1° 1030.1 hPa 3.1 m/s 0.0 mm
11:00 -7.7° 1029.7 hPa 3.7 m/s 0.0 mm -7.7° 1029.7 hPa 3.7 m/s 0.0 mm
14:00 -6.6° 1028.1 hPa 3.5 m/s 0.0 mm -6.6° 1028.1 hPa 3.5 m/s 0.0 mm
17:00 -5.9° 1026.5 hPa 4.1 m/s 0.0 mm -5.9° 1026.5 hPa 4.1 m/s 0.0 mm
20:00 -5.3° 1025.8 hPa 4.2 m/s 0.0 mm -5.3° 1025.8 hPa 4.2 m/s 0.1 mm
23:00 -5.0° 1025.4 hPa 4.4 m/s 0.7 mm -5.0° 1025.4 hPa 4.4 m/s 0.7 mm
 10:34     14:04    Daglengte: 3:30 Donderdag 21 Dec
02:00 -4.6° 1024.7 hPa 4.8 m/s 2.7 mm -4.6° 1024.7 hPa 4.8 m/s 2.7 mm
05:00 -4.2° 1023.8 hPa 5.1 m/s 1.6 mm -4.2° 1023.8 hPa 5.1 m/s 1.6 mm
08:00 -4.0° 1023.1 hPa 5.2 m/s 2.5 mm -4.0° 1023.1 hPa 5.2 m/s 2.5 mm
14:00 -3.0° 1022.5 hPa 4.9 m/s 2.3 mm -3.0° 1022.5 hPa 4.9 m/s 2.3 mm
20:00 -1.7° 1022.0 hPa 4.4 m/s 0.2 mm -1.7° 1022.0 hPa 4.4 m/s 0.2 mm
 10:34     14:04    Daglengte: 3:30 Vrijdag 22 Dec
02:00 -0.7° 1021.1 hPa 4.9 m/s 0.1 mm -0.7° 1021.1 hPa 4.9 m/s 0.1 mm
08:00 -2.4° 1019.0 hPa 5.5 m/s 0.2 mm -2.4° 1019.0 hPa 5.5 m/s 0.2 mm
14:00 -1.1° 1017.6 hPa 5.8 m/s 0.4 mm -1.1° 1017.6 hPa 5.8 m/s 0.4 mm
20:00 -3.7° 1018.5 hPa 5.5 m/s 0.3 mm -3.7° 1018.5 hPa 5.5 m/s 0.3 mm
 10:35     14:05    Daglengte: 3:30 Zaterdag 23 Dec
02:00 -4.8° 1018.9 hPa 5.0 m/s 1.0 mm -4.8° 1018.9 hPa 5.0 m/s 1.0 mm
08:00 -2.9° 1019.6 hPa 4.8 m/s 1.8 mm -2.9° 1019.6 hPa 4.8 m/s 1.8 mm
14:00 -2.3° 1021.5 hPa 3.2 m/s 0.9 mm -2.3° 1021.5 hPa 3.2 m/s 0.9 mm
20:00 -4.7° 1023.5 hPa 1.4 m/s 0.0 mm -4.7° 1023.5 hPa 1.4 m/s 0.1 mm
 10:35     14:06    Daglengte: 3:31 Zondag 24 Dec
02:00 -4.3° 1024.8 hPa 1.7 m/s 0.0 mm -4.3° 1024.8 hPa 1.7 m/s 0.1 mm
08:00 -3.8° 1005.7 hPa 1.6 m/s 0.6 mm
14:00 -4.1° 1005.0 hPa 1.7 m/s 0.9 mm
20:00 -4.2° 1004.7 hPa 1.9 m/s 0.7 mm
 10:35     14:07    Daglengte: 3:32 Maandag 25 Dec
02:00 -4.3° 1004.9 hPa 2.0 m/s 0.2 mm
08:00 -4.2° 1004.5 hPa 1.5 m/s 0.3 mm
14:00 -4.3° 1004.6 hPa 1.5 m/s 0.5 mm
20:00 -4.9° 1005.5 hPa 1.6 m/s 0.3 mm
 10:34     14:08    Daglengte: 3:34 Dinsdag 26 Dec
02:00 -5.2° 1006.2 hPa 2.0 m/s 0.4 mm
08:00 -5.6° 1007.5 hPa 2.0 m/s 0.3 mm
14:00 -5.1° 1008.9 hPa 2.5 m/s 0.2 mm
20:00 -4.9° 1010.3 hPa 2.5 m/s 0.2 mm
 10:34     14:10    Daglengte: 3:36 Woensdag 27 Dec
02:00 -4.5° 1010.3 hPa 2.9 m/s 0.2 mm
08:00 -3.9° 1010.9 hPa 2.3 m/s 0.5 mm
14:00 -3.6° 1012.8 hPa 2.2 m/s 0.4 mm
20:00 -4.2° 1014.0 hPa 2.3 m/s 0.4 mm
 10:33     14:12    Daglengte: 3:39 Donderdag 28 Dec
02:00 -4.5° 1015.3 hPa 2.4 m/s 0.3 mm
08:00 -4.2° 1015.1 hPa 2.6 m/s 0.4 mm
14:00 -4.5° 1015.2 hPa 2.6 m/s 0.4 mm
20:00 -3.9° 1014.7 hPa 2.8 m/s 0.2 mm
 10:32     14:13    Daglengte: 3:41 Vrijdag 29 Dec
02:00 -3.7° 1014.8 hPa 2.8 m/s 0.4 mm
08:00 -3.8° 1014.5 hPa 2.7 m/s 1.0 mm
FMI Hirlam - 7.5 km EWN WRFDA - 12 km DWD ICON - 7 km GFS - 25 km Basiskaart






























































Updatetijd (Europe/Amsterdam) Resolutie Lengte Stap
FMI Hirlam 06:15, 12:15, 18:15, 00:15 7.5 km 49h 1h
EWN WRFDA 02:00, 08:00, 14:00, 20:00 12 km 73h 1h
DWD ICON 17:45, 23:45, 05:45, 11:45 7 km 75h 1h
GFS 02:15, 08:15, 14:15, 20:15 25 km 237h 3h
30+ mm
25-30 mm
20-25 mm
15-20 mm
10-15 mm
6-10 mm
4-6 mm
2-4 mm
1-2 mm
0.5-1 mm
0.2-0.5 mm
0.1-0.2 mm
30+ mm
25-30 mm
20-25 mm
15-20 mm
10-15 mm
6-10 mm
4-6 mm
2-4 mm
1-2 mm
0.5-1 mm
0.2-0.5 mm
0.1-0.2 mm
Sneeuwval
Natte sneeuw
Hagel
Vorst
30+ mm
25-30 mm
20-25 mm
15-20 mm
10-15 mm
6-10 mm
4-6 mm
2-4 mm
1-2 mm
0.5-1 mm
0.2-0.5 mm
0.1-0.2 mm
Sneeuwval
Natte sneeuw
Hagel
Vorst
Onweer
50 mm
40 mm
30 mm
26 mm
22 mm
18 mm
14 mm
10 mm
9 mm
8 mm
7 mm
6 mm
5 mm
4.5 mm
4 mm
3.5 mm
3 mm
2.5 mm
2 mm
1.5 mm
1 mm
0.8 mm
0.6 mm
0.4 mm
0.2 mm
0.05 mm
35°
30°
25°
20°
15°
10°
-5°
-10°
-15°
-20°
-25°
-30°
-35°
33> m/s
29 m/s
25 m/s
21 m/s
17 m/s
14 m/s
11 m/s
8 m/s
5 m/s
3 m/s
0 m/s
2600 J/kg
2400 J/kg
2200 J/kg
2000 J/kg
1800 J/kg
1600 J/kg
1400 J/kg
1200 J/kg
1000 J/kg
800 J/kg
600 J/kg
400 J/kg
200 J/kg
70 dBZ
65 dBZ
60 dBZ
55 dBZ
50 dBZ
45 dBZ
40 dBZ
35 dBZ
30 dBZ
25 dBZ
20 dBZ
15 dBZ
10 dBZ
5 dBZ
-1 K
-2 K
-3 K
-4 K
-5 K
-6 K
-7 K
-8 K
-9 K
950 m²/s²
900 m²/s²
850 m²/s²
800 m²/s²
750 m²/s²
700 m²/s²
650 m²/s²
600 m²/s²
550 m²/s²
500 m²/s²
450 m²/s²
400 m²/s²
350 m²/s²
300 m²/s²
250 m²/s²
200 m²/s²
150 m²/s²
100 m²/s²
46 m/s
44 m/s
42 m/s
40 m/s
38 m/s
36 m/s
34 m/s
32 m/s
30 m/s
28 m/s
26 m/s
24 m/s
22 m/s
20 m/s
16 m/s
12 m/s
8 m/s
4 m/s
30 m/s
28 m/s
26 m/s
24 m/s
22 m/s
20 m/s
18 m/s
16 m/s
14 m/s
12 m/s
10 m/s
8 m/s
6 m/s
4 m/s
2 m/s
3.0
2.8
2.6
2.4
2.2
2.0
1.8
1.6
1.4
1.2
1.0
0.8
0.6
0.4
0.2
15
14
13
12
11
10
9
8
7
6
5
4
3
2
1
90%
80%
70%
60%
50%
40%
30%
20%
10%
42
40
38
36
34
32
30
28
26
24
22
20
18
16
14
12
90+ cm
80-90 cm
70-80 cm
60-70 cm
50-60 cm
40-50 cm
30-40 cm
20-30 cm
10-20 cm
1-10 cm
Sneeuwval
Natte sneeuw
Regen
>120 mm
115 mm
110 mm
105 mm
100 mm
95 mm
90 mm
85 mm
80 mm
75 mm
70 mm
65 mm
60 mm
55 mm
50 mm
45 mm
45 mm
40 mm
35 mm
30 mm
25 mm
20 mm
15 mm
10 mm
5 mm
0.1 mm
960 hPa
880 hPa
800 hPa
720 hPa
640 hPa
560 hPa
584 gpdm
568 gpdm
552 gpdm
536 gpdm
520 gpdm
504 gpdm
488 gpdm
Extreem zwaar Noodweer Kans op onweer
15% 15% 5% 50% 15%

Dag




Kaart






35°
30°
25°
20°
15°
10°
-5°
-10°
-15°
-20°
-25°
-30°
-35°
33> m/s
29 m/s
25 m/s
21 m/s
17 m/s
14 m/s
11 m/s
8 m/s
5 m/s
3 m/s
0 m/s
Extreem zwaar Noodweer Kans op onweer
15% 15% 5% 50% 15%
>120 mm
115 mm
110 mm
105 mm
100 mm
95 mm
90 mm
85 mm
80 mm
75 mm
70 mm
65 mm
60 mm
55 mm
50 mm
45 mm
45 mm
40 mm
35 mm
30 mm
25 mm
20 mm
15 mm
10 mm
5 mm
0.1 mm
Onweer risico kaarten - De groene en gele kleur geeft de kans op onweer aan binnen 40 km van een punt. Oranje, rood en violet hebben hetzelfde niveau zoals je het ziet op estofex.org waaronder ook de kans op hagel en supercells.

dBZ - dBZ staat voor decibel ten opzichte van Z.

Cape - Convective available potential energy (CAPE), is de totale hoeveelheid energie die een luchtpakketje nodig heeft om zover mogelijk te stijgen in de atmosfeer.

K Index - K-Index wordt berekend door de Vertical Totals (VT) en het verschil tussen de 850 hPa temperatuur en de 700 hPa dauwpuntsdepressie (Tdd 700) bij elkaar op te tellen.

TT Index - Convectie index wordt gebruikt voor het voorspellen van zware buien of onweer.

WRF - The Weather Research and Forecasting (WRF) is een volgende generatie mesoscale numeriek weersvoorspelling systeem ontworpen om zowel de operationele planning als het atmosferisch onderzoek te dienen. WRF is a cooperatie tussen het National Center for Atmospheric Research (NCAR), National Centers for Environmental Prediction (NCEP), Forecast Systems Laboratory (FSL), Air Force Weather Agency (AFWA), Naval Research Laboratory, University of Oklahoma, en de Federal Aviation Administration (FAA). Deze software draait op onze server.

WRFDA - Een meer geavanceerde versie van WRF

Arome - Het 2.5 km Arome model. Verzorgd door het Noors Meteorologisch Instituut.

MET Norway - De proff-default 4km meteorological data is een beste keus selectie van meteorologische modellen gebruikt door met.no die zijn geïnterpoleerd tot een gemeenschappelijke dataset. Verzorgd door het Noorse Meteorologisch Instituut.

SMHI - Het Hirlam model verzorgd door het Zweeds meteorologisch instituut.

FMI - Het Hirlam model verzorgd door het Fins meteorologisch instituut. Dekking alleen Finland.

GFS - Het Global Forecast Systeem (GFS) is een wereldwijd numerieke weersvoorspelling computermodel, gerund door NOAA.

GEM-GDPS - Het GEM-GDPS is a wereldwijd numeriek weersvoorspelling computermodel verzorgd door het Canadees Meteorologisch Centrum.

Credits/Info: Dank aan Stefan Gofferje van sääkeskus.fi voor enkele formules van GrADS. Info: Wikipedia.

Betrouwbaarheid van de verwachting

NB! 2015-03-29: Rebuilding the accuracy-test!

EWNACC
Day 1 Good forecasts

Dag 1 Tmax

Dag 2 Tmax

Geladen verwachtingen TOP 50

Totaal geladen verwachtingen:
Plaats Latitude Longitude Verwachtingen Plaats Latitude Longitude Verwachtingen
De waarden zijn gebaseerd op numerieke modellen. We proberen ze zo nauwkeurig mogelijk te krijgen, maar het echte weer is afhankelijk van allerlei fenomenen die niet automatisch kunnen worden opgehaald. Daarom, wanneer een waarde hoog is (bijv. Onweer kans), is dit niet een belofte dat het zal gebeuren!

De EWN-Weersverwachting gebruikt meerdere gratis bronnen voor de verwachting.
Daarnaast gebruiken we een eigen versie van WRFDA-EMS op 12 km resolutie die in de statistieken worden opgenomen. De kaarten zijn ook gegenereerd uit de WRFDA EMS-gegevens.

In de weersverwachting zijn inhoud en gegevens gebruikt van:
NCEP (GFS), The Canadian Meteorological Center (GEM-GDPS), Norwegian Meteorological Institute (MET Norway), Swedish Meteorological and Hydrological Institute (SMHI), Finnish meteorological institute (FMI), Temis (UV-forecast), Geonames, WXSIM - near private weatherstations with the WXSIM-software.
Creative Commons -lisenssi © 2017 European Weathernetwork. Script by Henkka, nordicweather.net with help from Oebel (weerstation-assen.nl), Henrik (silkeborg-vejret.dk), Alex (lokaltvader.se), Stefan (Wetterstation-Johanngeorgenstadt) and Daniel (wetterdienst.de). Reusage without permission forbidden.
Except where otherwise noted, content on this page is licensed under a Creative Commons Attribution 3.0 License.